Weather History for Bradford, PA

Change the Weather History Date:

Saturday, May 12, 2012

  Actual Average Record
Temperature  
Mean Temperature 55 °F 52 °F  
Max Temperature 75 °F 65 °F 80 °F (1991)
Min Temperature 37 °F 39 °F 25 °F (1963)
Degree Days  
Heating Degree Days 10 9  
Month to date heating degree days 120  
Since 1 July heating degree days 7371  
Cooling Degree Days 0 0  
Month to date cooling degree days 0  
Year to date cooling degree days 2  
Growing Degree Days 5 (Base 50)    
Moisture  
Dew Point 37 °F    
Average Humidity 53    
Maximum Humidity 86    
Minimum Humidity 26    
Precipitation  
Precipitation 0.00 in 0.13 in 1.52 in (1974)
Month to date precipitation 1.52  
Year to date precipitation 14.08  
Sea Level Pressure  
Sea Level Pressure 30.23 in    
Wind  
Wind Speed 3 mph (WSW)    
Max Wind Speed 10 mph    
Max Gust Speed 20 mph    
Visibility 10 miles    
Events      
T = Trace of Precipitation, MM = Missing Value Source: NWS Daily Summary

Daily Weather History Graph

Daily Weather History Graph

Search for Another Location

Airport:

Trip Planner

Search our weather history database for the weather conditions in past years. The results will help you decide how hot, cold, wet, or windy it might be!

Date:

Astronomy

May. 12, 2012 Rise Set
Actual Time 5:57 AM EDT 8:25 PM EDT
Civil Twilight 5:25 AM EDT 8:56 PM EDT
Nautical Twilight 4:46 AM EDT 9:36 PM EDT
Astronomical Twilight 4:02 AM EDT 10:20 PM EDT
Moon 1:36 AM EDT (5/12) 12:36 PM EDT (5/12)
Length of Visible Light 15h 31m
Length of Day
14h 28m
Waning Gibbous, 53% of the Moon is Illuminated
May 12
Waning Gibbous
May 12
Last Quarter
May 20
New
May 28
First Quarter
Jun 4
Full

Hourly Weather History & Observations

Time (EDT) Temp. Dew Point Humidity Pressure Visibility Wind Dir Wind Speed Gust Speed Precip Events Conditions
12:53 AM 39.9 °F 36.0 °F 86% 30.21 in 10.0 mi Calm Calm - N/A   Clear
1:53 AM 41.0 °F 35.1 °F 79% 30.21 in 10.0 mi Calm Calm - N/A   Clear
2:53 AM 41.0 °F 35.1 °F 79% 30.21 in 10.0 mi Calm Calm - N/A   Clear
3:53 AM 37.9 °F 34.0 °F 86% 30.21 in 10.0 mi Calm Calm - N/A   Clear
4:53 AM 37.0 °F 33.1 °F 86% 30.22 in 10.0 mi Calm Calm - N/A   Clear
5:53 AM 39.9 °F 35.1 °F 83% 30.24 in 10.0 mi Calm Calm - N/A   Clear
6:53 AM 42.1 °F 37.0 °F 82% 30.26 in 10.0 mi Calm Calm - N/A   Clear
7:53 AM 54.0 °F 37.0 °F 53% 30.27 in 10.0 mi West 4.6 mph - N/A   Clear
8:53 AM 59.0 °F 37.0 °F 44% 30.27 in 10.0 mi Variable 5.8 mph - N/A   Clear
9:53 AM 63.0 °F 37.9 °F 40% 30.27 in 10.0 mi Variable 6.9 mph - N/A   Clear
10:53 AM 66.0 °F 37.0 °F 34% 30.27 in 10.0 mi West 8.1 mph 19.6 mph N/A   Clear
11:53 AM 69.1 °F 36.0 °F 30% 30.27 in 10.0 mi West 8.1 mph - N/A   Clear
12:53 PM 71.1 °F 36.0 °F 28% 30.25 in 10.0 mi North - - N/A   Clear
1:53 PM 70.0 °F 35.1 °F 28% 30.25 in 10.0 mi WSW 8.1 mph - N/A   Clear
2:53 PM 73.0 °F 37.0 °F 27% 30.22 in 10.0 mi WSW 10.4 mph - N/A   Clear
3:53 PM 73.0 °F 36.0 °F 26% 30.20 in 10.0 mi Variable 5.8 mph - N/A   Clear
4:53 PM 73.9 °F 37.0 °F 26% 30.19 in 10.0 mi SW 10.4 mph - N/A   Clear
5:53 PM 73.0 °F 36.0 °F 26% 30.19 in 10.0 mi Variable 5.8 mph - N/A   Clear
6:53 PM 70.0 °F 37.9 °F 31% 30.20 in 10.0 mi SW 8.1 mph - N/A   Clear
7:53 PM 64.0 °F 39.9 °F 41% 30.21 in 10.0 mi NW 9.2 mph - N/A   Clear
8:53 PM 60.1 °F 41.0 °F 49% 30.20 in 10.0 mi Calm Calm - N/A   Clear
9:53 PM 55.9 °F 42.1 °F 60% 30.22 in 10.0 mi Calm Calm - N/A   Clear
10:53 PM 52.0 °F 43.0 °F 71% 30.22 in 10.0 mi Calm Calm - N/A   Clear
11:53 PM 50.0 °F 43.0 °F 77% 30.21 in 10.0 mi Calm Calm - N/A   Clear